Time,TemperatureF,DewpointF,PressureIn,WindDirection,WindDirectionDegrees,WindSpeedMPH,WindSpeedGustMPH,Humidity,HourlyPrecipIn,Conditions,Clouds,dailyrainin,SoftwareType,DateUTC
2013-02-06 00:02:00,33.0,33.0,-100.00,ESE,120,0.0,1.0,98,0.00,,,-99.99,,2013-02-06 05:02:00,
2013-02-06 00:12:00,33.0,33.0,-100.00,NE,50,0.0,0.0,98,0.00,,,-99.99,,2013-02-06 05:12:00,
2013-02-06 00:22:00,33.0,33.0,-100.00,NE,50,0.0,0.0,98,0.00,,,-99.99,,2013-02-06 05:22:00,
2013-02-06 00:32:00,34.0,33.0,-100.00,NNE,15,2.0,4.0,98,0.00,,,-99.99,,2013-02-06 05:32:00,
2013-02-06 00:41:00,34.0,33.0,-100.00,East,95,0.0,4.0,98,0.00,,,-99.99,,2013-02-06 05:41:00,
2013-02-06 00:53:00,34.0,33.0,-100.00,North,350,0.0,0.0,98,0.00,,,-99.99,,2013-02-06 05:53:00,
2013-02-06 01:01:00,34.0,33.0,-100.00,North,350,0.0,0.0,98,0.00,,,-99.99,,2013-02-06 06:01:00,
2013-02-06 01:11:00,34.0,33.0,-100.00,NE,45,1.0,2.0,99,0.00,,,-99.99,,2013-02-06 06:11:00,
2013-02-06 01:21:00,34.0,33.0,-100.00,NE,45,1.0,2.0,99,0.00,,,-99.99,,2013-02-06 06:21:00,
2013-02-06 01:32:00,34.0,33.0,-100.00,NE,50,1.0,4.0,99,0.00,,,-99.99,,2013-02-06 06:32:00,
2013-02-06 01:42:00,33.0,33.0,-100.00,North,0,0.0,2.0,99,0.00,,,-99.99,,2013-02-06 06:42:00,
2013-02-06 01:51:00,33.0,33.0,-100.00,ENE,65,0.0,0.0,99,0.00,,,-99.99,,2013-02-06 06:51:00,
2013-02-06 02:02:00,33.0,33.0,-100.00,ENE,65,0.0,0.0,99,0.00,,,-99.99,,2013-02-06 07:02:00,
2013-02-06 02:11:00,34.0,33.0,-100.00,ENE,65,1.0,2.0,99,0.00,,,-99.99,,2013-02-06 07:11:00,
2013-02-06 02:22:00,34.0,33.0,-100.00,ENE,65,1.0,2.0,99,0.00,,,-99.99,,2013-02-06 07:22:00,
2013-02-06 02:32:00,34.0,33.0,-100.00,ENE,65,1.0,2.0,99,0.00,,,-99.99,,2013-02-06 07:32:00,
2013-02-06 02:42:00,34.0,34.0,-100.00,ESE,105,0.0,2.0,99,0.00,,,-99.99,,2013-02-06 07:42:00,
2013-02-06 02:51:00,34.0,34.0,-100.00,NNW,345,1.0,3.0,99,0.00,,,-99.99,,2013-02-06 07:51:00,
2013-02-06 03:01:00,34.0,34.0,-100.00,NNW,345,1.0,3.0,99,0.00,,,-99.99,,2013-02-06 08:01:00,
2013-02-06 03:11:00,34.0,34.0,-100.00,North,0,2.0,6.0,99,0.00,,,-99.99,,2013-02-06 08:11:00,
2013-02-06 03:21:00,34.0,34.0,-100.00,North,0,2.0,6.0,99,0.00,,,-99.99,,2013-02-06 08:21:00,
2013-02-06 03:32:00,35.0,35.0,-100.00,NNW,330,5.0,7.0,99,0.00,,,-99.99,,2013-02-06 08:32:00,
2013-02-06 03:42:00,36.0,35.0,-100.00,NNW,330,4.0,10.0,99,0.00,,,-99.99,,2013-02-06 08:42:00,
2013-02-06 03:53:00,36.0,35.0,-100.00,NE,35,0.0,8.0,99,0.00,,,-99.99,,2013-02-06 08:53:00,
2013-02-06 04:02:00,36.0,35.0,-100.00,NE,35,0.0,8.0,99,0.00,,,-99.99,,2013-02-06 09:02:00,
2013-02-06 04:11:00,36.0,35.0,-100.00,NNW,330,6.0,13.0,98,0.00,,,-99.99,,2013-02-06 09:11:00,
2013-02-06 04:21:00,36.0,34.0,-100.00,NW,315,9.0,18.0,93,0.00,,,-99.99,,2013-02-06 09:21:00,
2013-02-06 04:32:00,36.0,34.0,-100.00,NW,315,9.0,18.0,93,0.00,,,-99.99,,2013-02-06 09:32:00,
2013-02-06 04:42:00,36.0,33.0,-100.00,NW,310,9.0,17.0,89,0.00,,,-99.99,,2013-02-06 09:42:00,
2013-02-06 04:52:00,36.0,33.0,-100.00,NW,310,9.0,17.0,89,0.00,,,-99.99,,2013-02-06 09:52:00,
2013-02-06 05:01:00,36.0,32.0,-100.00,NW,320,6.0,15.0,88,0.00,,,-99.99,,2013-02-06 10:01:00,
2013-02-06 05:11:00,35.0,32.0,-100.00,NNE,15,4.0,12.0,88,0.00,,,-99.99,,2013-02-06 10:11:00,
2013-02-06 05:21:00,35.0,32.0,-100.00,NW,315,7.0,12.0,88,0.00,,,-99.99,,2013-02-06 10:21:00,
2013-02-06 05:32:00,35.0,32.0,-100.00,NW,315,7.0,12.0,88,0.00,,,-99.99,,2013-02-06 10:32:00,
2013-02-06 05:42:00,35.0,31.0,-100.00,West,280,6.0,10.0,88,0.00,,,-99.99,,2013-02-06 10:42:00,
2013-02-06 05:52:00,34.0,31.0,-100.00,WNW,295,8.0,18.0,86,0.00,,,-99.99,,2013-02-06 10:52:00,
2013-02-06 06:01:00,34.0,31.0,-100.00,WNW,295,8.0,18.0,86,0.00,,,-99.99,,2013-02-06 11:01:00,
2013-02-06 06:11:00,34.0,31.0,-100.00,NW,305,6.0,16.0,86,0.00,,,-99.99,,2013-02-06 11:11:00,
2013-02-06 06:22:00,34.0,30.0,-100.00,NW,315,7.0,12.0,85,0.00,,,-99.99,,2013-02-06 11:22:00,
2013-02-06 06:32:00,34.0,30.0,-100.00,NW,315,7.0,12.0,85,0.00,,,-99.99,,2013-02-06 11:32:00,
2013-02-06 06:42:00,34.0,30.0,-100.00,WNW,300,6.0,15.0,83,0.00,,,-99.99,,2013-02-06 11:42:00,
2013-02-06 06:52:00,34.0,30.0,-100.00,NW,305,6.0,9.0,83,0.00,,,-99.99,,2013-02-06 11:52:00,
2013-02-06 07:02:00,34.0,30.0,-100.00,NW,305,6.0,9.0,83,0.00,,,-99.99,,2013-02-06 12:02:00,
2013-02-06 07:12:00,34.0,29.0,-100.00,NW,325,14.0,22.0,83,0.00,,,-99.99,,2013-02-06 12:12:00,
2013-02-06 07:22:00,34.0,29.0,-100.00,NW,320,6.0,22.0,83,0.00,,,-99.99,,2013-02-06 12:22:00,
2013-02-06 07:32:00,34.0,29.0,-100.00,NW,320,6.0,22.0,83,0.00,,,-99.99,,2013-02-06 12:32:00,
2013-02-06 07:42:00,34.0,30.0,-100.00,NW,310,4.0,14.0,84,0.00,,,-99.99,,2013-02-06 12:42:00,
2013-02-06 07:52:00,34.0,30.0,-100.00,West,275,4.0,10.0,86,0.00,,,-99.99,,2013-02-06 12:52:00,
2013-02-06 08:02:00,34.0,30.0,-100.00,West,275,4.0,10.0,86,0.00,,,-99.99,,2013-02-06 13:02:00,
2013-02-06 08:12:00,34.0,30.0,-100.00,NW,305,6.0,10.0,86,0.00,,,-99.99,,2013-02-06 13:12:00,
2013-02-06 08:22:00,34.0,30.0,-100.00,NW,305,6.0,10.0,86,0.00,,,-99.99,,2013-02-06 13:22:00,
2013-02-06 08:32:00,34.0,30.0,-100.00,WSW,255,2.0,12.0,85,0.00,,,-99.99,,2013-02-06 13:32:00,
2013-02-06 08:42:00,34.0,30.0,-100.00,SW,220,3.0,6.0,85,0.00,,,-99.99,,2013-02-06 13:42:00,
2013-02-06 08:52:00,34.0,30.0,-100.00,WSW,255,1.0,8.0,84,0.00,,,-99.99,,2013-02-06 13:52:00,
2013-02-06 09:02:00,34.0,30.0,-100.00,WSW,255,1.0,8.0,84,0.00,,,-99.99,,2013-02-06 14:02:00,
2013-02-06 09:11:00,35.0,30.0,-100.00,WNW,300,1.0,6.0,82,0.00,,,-99.99,,2013-02-06 14:11:00,
2013-02-06 09:22:00,35.0,30.0,-100.00,West,265,1.0,8.0,80,0.00,,,-99.99,,2013-02-06 14:22:00,
2013-02-06 09:32:00,35.0,30.0,-100.00,West,265,1.0,8.0,80,0.00,,,-99.99,,2013-02-06 14:32:00,
2013-02-06 09:42:00,35.0,29.0,-100.00,WNW,285,6.0,8.0,78,0.00,,,-99.99,,2013-02-06 14:42:00,
2013-02-06 09:52:00,35.0,29.0,-100.00,WNW,285,6.0,8.0,78,0.00,,,-99.99,,2013-02-06 14:52:00,
2013-02-06 10:02:00,35.0,29.0,-100.00,WNW,285,4.0,11.0,76,0.00,,,-99.99,,2013-02-06 15:02:00,
2013-02-06 10:11:00,36.0,29.0,-100.00,North,5,1.0,9.0,76,0.00,,,-99.99,,2013-02-06 15:11:00,
2013-02-06 10:21:00,36.0,29.0,-100.00,North,5,1.0,9.0,76,0.00,,,-99.99,,2013-02-06 15:21:00,
2013-02-06 10:32:00,36.0,29.0,-100.00,South,185,1.0,6.0,76,0.00,,,-99.99,,2013-02-06 15:32:00,
2013-02-06 10:42:00,36.0,29.0,-100.00,North,5,0.0,9.0,75,0.00,,,-99.99,,2013-02-06 15:42:00,
2013-02-06 10:52:00,36.0,29.0,-100.00,NNE,25,2.0,6.0,74,0.00,,,-99.99,,2013-02-06 15:52:00,
2013-02-06 11:01:00,36.0,29.0,-100.00,NNE,25,2.0,6.0,74,0.00,,,-99.99,,2013-02-06 16:01:00,
2013-02-06 11:11:00,36.0,28.0,-100.00,WNW,290,2.0,6.0,71,0.00,,,-99.99,,2013-02-06 16:11:00,
2013-02-06 11:21:00,36.0,28.0,-100.00,WNW,290,2.0,6.0,71,0.00,,,-99.99,,2013-02-06 16:21:00,
2013-02-06 11:32:00,37.0,28.0,-100.00,North,355,2.0,7.0,70,0.00,,,-99.99,,2013-02-06 16:32:00,
2013-02-06 11:42:00,37.0,28.0,-100.00,NW,320,4.0,15.0,70,0.00,,,-99.99,,2013-02-06 16:42:00,
2013-02-06 11:52:00,37.0,28.0,-100.00,WNW,300,6.0,12.0,69,0.00,,,-99.99,,2013-02-06 16:52:00,
2013-02-06 12:02:00,37.0,28.0,-100.00,WNW,300,6.0,12.0,69,0.00,,,-99.99,,2013-02-06 17:02:00,
2013-02-06 12:11:00,37.0,28.0,-100.00,NW,310,5.0,12.0,68,0.00,,,-99.99,,2013-02-06 17:11:00,
2013-02-06 12:22:00,37.0,27.0,-100.00,NW,305,4.0,12.0,66,0.00,,,-99.99,,2013-02-06 17:22:00,
2013-02-06 12:32:00,37.0,27.0,-100.00,NW,305,4.0,12.0,66,0.00,,,-99.99,,2013-02-06 17:32:00,
2013-02-06 12:42:00,38.0,27.0,-100.00,NW,315,4.0,11.0,66,0.00,,,-99.99,,2013-02-06 17:42:00,
2013-02-06 12:52:00,38.0,27.0,-100.00,NW,320,3.0,12.0,66,0.00,,,-99.99,,2013-02-06 17:52:00,
2013-02-06 13:02:00,38.0,27.0,-100.00,NW,320,3.0,12.0,66,0.00,,,-99.99,,2013-02-06 18:02:00,
2013-02-06 13:12:00,37.0,27.0,-100.00,NW,305,4.0,14.0,66,0.00,,,-99.99,,2013-02-06 18:12:00,
2013-02-06 13:23:00,37.0,27.0,-100.00,North,350,4.0,9.0,66,0.00,,,-99.99,,2013-02-06 18:23:00,
2013-02-06 13:32:00,37.0,27.0,-100.00,North,350,4.0,9.0,66,0.00,,,-99.99,,2013-02-06 18:32:00,
2013-02-06 13:42:00,37.0,27.0,-100.00,NNW,335,7.0,12.0,67,0.00,,,-99.99,,2013-02-06 18:42:00,
2013-02-06 13:52:00,37.0,27.0,-100.00,North,0,1.0,5.0,67,0.00,,,-99.99,,2013-02-06 18:52:00,
2013-02-06 14:02:00,37.0,27.0,-100.00,North,0,1.0,5.0,67,0.00,,,-99.99,,2013-02-06 19:02:00,
2013-02-06 14:11:00,37.0,27.0,-100.00,NW,325,4.0,7.0,67,0.00,,,-99.99,,2013-02-06 19:11:00,
2013-02-06 14:21:00,37.0,27.0,-100.00,NW,325,4.0,7.0,67,0.00,,,-99.99,,2013-02-06 19:21:00,
2013-02-06 14:32:00,37.0,27.0,-100.00,NW,315,4.0,9.0,66,0.00,,,-99.99,,2013-02-06 19:32:00,
2013-02-06 14:42:00,37.0,27.0,-100.00,NW,320,2.0,8.0,67,0.00,,,-99.99,,2013-02-06 19:42:00,
2013-02-06 14:52:00,37.0,27.0,-100.00,NNW,330,5.0,9.0,67,0.00,,,-99.99,,2013-02-06 19:52:00,
2013-02-06 15:01:00,37.0,27.0,-100.00,NNW,330,5.0,9.0,67,0.00,,,-99.99,,2013-02-06 20:01:00,
2013-02-06 15:11:00,37.0,27.0,-100.00,NW,320,7.0,15.0,67,0.00,,,-99.99,,2013-02-06 20:11:00,
2013-02-06 15:21:00,37.0,27.0,-100.00,NW,320,7.0,15.0,67,0.00,,,-99.99,,2013-02-06 20:21:00,
2013-02-06 15:32:00,37.0,27.0,-100.00,NNW,330,6.0,13.0,67,0.00,,,-99.99,,2013-02-06 20:32:00,
2013-02-06 15:42:00,37.0,27.0,-100.00,NNW,340,8.0,13.0,67,0.00,,,-99.99,,2013-02-06 20:42:00,
2013-02-06 15:52:00,37.0,27.0,-100.00,NNW,340,8.0,13.0,67,0.00,,,-99.99,,2013-02-06 20:52:00,
2013-02-06 16:02:00,37.0,27.0,-100.00,NW,315,4.0,10.0,67,0.00,,,-99.99,,2013-02-06 21:02:00,
2013-02-06 16:11:00,37.0,27.0,-100.00,NNE,25,4.0,11.0,67,0.00,,,-99.99,,2013-02-06 21:11:00,
2013-02-06 16:21:00,37.0,27.0,-100.00,NNE,25,4.0,11.0,67,0.00,,,-99.99,,2013-02-06 21:21:00,
2013-02-06 16:32:00,37.0,27.0,-100.00,WNW,300,4.0,9.0,68,0.00,,,-99.99,,2013-02-06 21:32:00,
2013-02-06 16:42:00,37.0,27.0,-100.00,NW,320,3.0,9.0,67,0.00,,,-99.99,,2013-02-06 21:42:00,
2013-02-06 16:51:00,37.0,27.0,-100.00,NW,320,3.0,9.0,67,0.00,,,-99.99,,2013-02-06 21:51:00,
2013-02-06 17:01:00,37.0,27.0,-100.00,North,10,2.0,9.0,67,0.00,,,-99.99,,2013-02-06 22:01:00,
2013-02-06 17:11:00,37.0,27.0,-100.00,NW,320,6.0,12.0,66,0.00,,,-99.99,,2013-02-06 22:11:00,
2013-02-06 17:21:00,36.0,26.0,-100.00,WNW,300,6.0,12.0,66,0.00,,,-99.99,,2013-02-06 22:21:00,
2013-02-06 17:32:00,36.0,26.0,-100.00,WNW,300,6.0,12.0,66,0.00,,,-99.99,,2013-02-06 22:32:00,
2013-02-06 17:42:00,36.0,26.0,-100.00,NNW,340,3.0,10.0,66,0.00,,,-99.99,,2013-02-06 22:42:00,
2013-02-06 17:52:00,36.0,26.0,-100.00,NNW,340,3.0,10.0,66,0.00,,,-99.99,,2013-02-06 22:52:00,
2013-02-06 18:01:00,36.0,26.0,-100.00,NNW,330,4.0,8.0,66,0.00,,,-99.99,,2013-02-06 23:01:00,
2013-02-06 18:11:00,36.0,26.0,-100.00,NNW,330,2.0,6.0,66,0.00,,,-99.99,,2013-02-06 23:11:00,
2013-02-06 18:21:00,36.0,26.0,-100.00,NNW,330,2.0,6.0,66,0.00,,,-99.99,,2013-02-06 23:21:00,
2013-02-06 18:32:00,35.0,26.0,-100.00,NW,315,2.0,5.0,67,0.00,,,-99.99,,2013-02-06 23:32:00,
2013-02-06 18:42:00,35.0,26.0,-100.00,NW,315,2.0,4.0,68,0.00,,,-99.99,,2013-02-06 23:42:00,
2013-02-06 18:52:00,35.0,26.0,-100.00,NW,315,2.0,4.0,68,0.00,,,-99.99,,2013-02-06 23:52:00,
2013-02-06 19:02:00,34.0,26.0,-100.00,ENE,70,0.0,3.0,72,0.00,,,-99.99,,2013-02-07 00:02:00,
2013-02-06 19:11:00,33.0,26.0,-100.00,NNW,330,0.0,3.0,76,0.00,,,-99.99,,2013-02-07 00:11:00,
2013-02-06 19:21:00,32.0,26.0,-100.00,NNE,15,1.0,2.0,77,0.00,,,-99.99,,2013-02-07 00:21:00,
2013-02-06 19:32:00,32.0,26.0,-100.00,NNE,15,1.0,2.0,77,0.00,,,-99.99,,2013-02-07 00:32:00,
2013-02-06 19:42:00,31.0,26.0,-100.00,NNE,15,2.0,4.0,80,0.00,,,-99.99,,2013-02-07 00:42:00,
2013-02-06 19:52:00,31.0,26.0,-100.00,NNE,15,2.0,4.0,80,0.00,,,-99.99,,2013-02-07 00:52:00,
2013-02-06 20:01:00,31.0,26.0,-100.00,NNE,25,1.0,4.0,82,0.00,,,-99.99,,2013-02-07 01:01:00,
2013-02-06 20:11:00,31.0,26.0,-100.00,NNE,25,3.0,6.0,84,0.00,,,-99.99,,2013-02-07 01:11:00,
2013-02-06 20:21:00,30.0,26.0,-100.00,NNE,25,1.0,5.0,85,0.00,,,-99.99,,2013-02-07 01:21:00,
2013-02-06 20:32:00,30.0,26.0,-100.00,NNE,25,1.0,5.0,85,0.00,,,-99.99,,2013-02-07 01:32:00,
2013-02-06 20:42:00,29.0,26.0,-100.00,ESE,105,1.0,2.0,86,0.00,,,-99.99,,2013-02-07 01:42:00,
2013-02-06 20:52:00,29.0,26.0,-100.00,SE,125,1.0,4.0,87,0.00,,,-99.99,,2013-02-07 01:52:00,
2013-02-06 21:01:00,29.0,26.0,-100.00,SE,125,1.0,4.0,87,0.00,,,-99.99,,2013-02-07 02:01:00,
2013-02-06 21:11:00,29.0,26.0,-100.00,NE,35,2.0,4.0,88,0.00,,,-99.99,,2013-02-07 02:11:00,
2013-02-06 21:21:00,28.0,25.0,-100.00,NE,45,1.0,4.0,88,0.00,,,-99.99,,2013-02-07 02:21:00,
2013-02-06 21:32:00,28.0,25.0,-100.00,NE,45,1.0,4.0,88,0.00,,,-99.99,,2013-02-07 02:32:00,
2013-02-06 21:41:00,28.0,25.0,-100.00,NE,45,1.0,4.0,88,0.00,,,-99.99,,2013-02-07 02:41:00,
2013-02-06 21:51:00,28.0,25.0,-100.00,NE,45,1.0,4.0,88,0.00,,,-99.99,,2013-02-07 02:51:00,
2013-02-06 22:02:00,29.0,26.0,-100.00,NE,40,5.0,8.0,89,0.00,,,-99.99,,2013-02-07 03:02:00,
2013-02-06 22:11:00,28.0,25.0,-100.00,SW,225,0.0,6.0,90,0.00,,,-99.99,,2013-02-07 03:11:00,
2013-02-06 22:21:00,28.0,25.0,-100.00,SW,225,0.0,6.0,90,0.00,,,-99.99,,2013-02-07 03:21:00,
2013-02-06 22:32:00,28.0,25.0,-100.00,NNE,25,2.0,4.0,90,0.00,,,-99.99,,2013-02-07 03:32:00,
2013-02-06 22:42:00,27.0,24.0,-100.00,NNE,30,6.0,7.0,90,0.00,,,-99.99,,2013-02-07 03:42:00,
2013-02-06 22:52:00,27.0,24.0,-100.00,NE,40,1.0,4.0,90,0.00,,,-99.99,,2013-02-07 03:52:00,
2013-02-06 23:01:00,27.0,24.0,-100.00,NE,40,1.0,4.0,90,0.00,,,-99.99,,2013-02-07 04:01:00,
2013-02-06 23:11:00,27.0,24.0,-100.00,North,10,1.0,4.0,90,0.00,,,-99.99,,2013-02-07 04:11:00,
2013-02-06 23:22:00,27.0,24.0,-100.00,North,10,1.0,4.0,90,0.00,,,-99.99,,2013-02-07 04:22:00,
2013-02-06 23:32:00,26.0,24.0,-100.00,East,90,0.0,2.0,90,0.00,,,-99.99,,2013-02-07 04:32:00,
2013-02-06 23:41:00,26.0,24.0,-100.00,North,10,2.0,4.0,91,0.00,,,-99.99,,2013-02-07 04:41:00,
2013-02-06 23:53:00,26.0,24.0,-100.00,North,10,2.0,4.0,91,0.00,,,-99.99,,2013-02-07 04:53:00,